Location: Rounton
(54.4000°N, 1.3500°W)
Time: 08:41:21
(UTC+00:00)

Tiros 1 despin weight - Pass Details

Date: 07 December 2021
Orbit: 592 x 641 km, 48.2° (Epoch: 19 January)

Event Time Altitude Azimuth Distance (km) Brightness Sun altitude
Rises 17:50:20 0° 269° (W) 2,826 ? -17.3°
Reaches altitude 10° 17:54:05 10° 237° (WSW) 1,921 ? -17.9°
Maximum altitude 17:55:35 12° 217° (SW) 1,817 ? -18.1°
Drops below altitude 10° 17:57:06 10° 197° (SSW) 1,921 ? -18.3°
Sets 18:00:51 0° 164° (SSE) 2,824 ? -18.8°
